GW3114 Weather Reports


time (UTC)temp
C
wind
direction
speed
KPH
gust
KPH
rain 1hr
cm
rain 24hr
cm
rain mn
cm
humidity
%
barometer
mb
20260507180847 18 117 3.2 4.8 0.00 0.18 0.18 49 1009.9
20260507175845 18 111 3.2 4.8 0.00 0.18 0.18 56 1010.0
20260507174840 17 206 0.0 1.6 0.00 0.18 0.18 63 1010.0
20260507173840 17 66 1.6 3.2 0.00 0.18 0.18 59 1010.3
20260507172839 16 228 0.0 0.0 0.00 0.18 0.18 55 1010.4
20260507171838 16 104 3.2 4.8 0.00 0.18 0.18 57 1010.6
20260507170838 16 142 1.6 4.8 0.00 0.18 0.18 65 1010.9
20260507165835 16 160 3.2 3.2 0.00 0.18 0.18 60 1011.3
20260507164833 16 208 1.6 1.6 0.00 0.18 0.18 56 1011.3
20260507163833 16 218 1.6 3.2 0.00 0.18 0.18 58 1011.5
20260507162833 15 199 1.6 3.2 0.00 0.18 0.18 57 1011.3
20260507161831 15 16 3.2 4.8 0.00 0.18 0.18 54 1011.6
20260507160830 14 203 1.6 1.6 0.00 0.18 0.18 60 1012.0
20260507155828 13 252 0.0 0.0 0.00 0.18 0.18 57 1011.9
20260507154827 13 228 0.0 1.6 0.00 0.18 0.18 62 1011.9
20260507153827 13 243 1.6 1.6 0.00 0.18 0.18 60 1012.0
20260507152826 13 350 4.8 4.8 0.00 0.18 0.18 59 1012.3
20260507151824 14 67 1.6 3.2 0.00 0.18 0.18 58 1012.5
20260507150824 13 234 0.0 0.0 0.00 0.18 0.18 62 1012.2
20260507145822 13 194 1.6 3.2 0.00 0.18 0.18 60 1012.7
20260507144822 13 232 0.0 1.6 0.00 0.18 0.18 59 1012.7
20260507143821 12 219 0.0 0.0 0.00 0.18 0.18 60 1012.7
20260507142820 12 269 1.6 1.6 0.00 0.18 0.18 62 1012.8
20260507141820 12 17 0.0 1.6 0.00 0.18 0.18 68 1012.9
20260507140819 12 216 0.0 0.0 0.00 0.18 0.18 65 1013.2
20260507135814 12 1 3.2 4.8 0.00 0.18 0.18 67 1012.9
20260507134813 12 25 3.2 3.2 0.00 0.18 0.18 65 1013.3
20260507133811 12 289 1.6 1.6 0.00 0.18 0.18 68 1013.4
20260507132811 12 235 1.6 1.6 0.00 0.18 0.18 67 1013.4
20260507131811 12 230 0.0 1.6 0.00 0.18 0.18 70 1013.3
20260507130810 11 225 1.6 3.2 0.00 0.18 0.18 66 1013.1
20260507125806 11 235 1.6 1.6 0.00 0.18 0.18 71 1013.1
20260507124806 11 227 0.0 1.6 0.00 0.18 0.18 71 1013.3
20260507123801 11 229 0.0 0.0 0.00 0.18 0.18 71 1013.4
20260507122800 11 231 0.0 0.0 0.00 0.18 0.18 70 1013.5
20260507121757 11 167 0.0 1.6 0.00 0.18 0.18 68 1013.0
20260507120756 11 222 0.0 1.6 0.00 0.18 0.18 71 1013.1
20260507115755 11 254 1.6 1.6 0.00 0.18 0.18 70 1013.0
20260507114752 11 270 1.6 3.2 0.00 0.18 0.18 70 1013.1
20260507113747 11 216 1.6 3.2 0.00 0.18 0.18 70 1012.8
20260507112747 11 300 4.8 4.8 0.00 0.18 0.18 73 1012.8
20260507111742 11 262 3.2 4.8 0.00 0.18 0.18 76 1012.4
20260507110740 11 314 1.6 3.2 0.00 0.18 0.18 82 1012.6
20260507105740 11 308 3.2 3.2 0.00 0.18 0.18 80 1012.6
20260507104739 11 259 1.6 1.6 0.00 0.18 0.18 85 1012.5
20260507103737 11 264 0.0 1.6 0.00 0.18 0.18 88 1012.4
20260507102736 11 226 0.0 1.6 0.00 0.18 0.18 89 1012.2
20260507101735 11 234 0.0 1.6 0.00 0.18 0.18 90 1012.0
20260507100734 11 233 0.0 0.0 0.00 0.18 0.18 89 1012.2
20260507095729 11 240 1.6 1.6 0.00 0.18 0.18 89 1012.1
20260507094729 11 227 0.0 0.0 0.00 0.18 0.18 89 1011.9
20260507093728 11 226 0.0 0.0 0.00 0.18 0.18 89 1012.0
20260507092724 11 190 0.0 0.0 0.00 0.18 0.18 89 1011.9
20260507091722 11 243 0.0 0.0 0.00 0.18 0.18 90 1011.6
20260507090719 11 237 0.0 1.6 0.00 0.18 0.18 91 1011.6
20260507085719 12 223 0.0 0.0 0.00 0.18 0.18 90 1011.5
20260507084719 12 8 0.0 1.6 0.00 0.18 0.18 90 1011.6
20260507083718 12 246 1.6 1.6 0.00 0.18 0.18 91 1011.7
20260507082716 12 234 0.0 0.0 0.00 0.18 0.18 91 1011.5
20260507081714 12 233 0.0 0.0 0.00 0.18 0.18 91 1011.7
20260507080713 12 240 0.0 1.6 0.00 0.18 0.18 91 1011.7
20260507075711 12 234 1.6 3.2 0.00 0.18 0.18 92 1011.5
20260507074709 12 233 0.0 1.6 0.00 0.18 0.18 93 1011.0
20260507073704 12 231 0.0 0.0 0.00 0.18 0.18 93 1010.9
20260507072704 12 232 0.0 0.0 0.00 0.18 0.18 93 1011.1
20260507071659 11 228 0.0 0.0 0.00 0.18 0.18 92 1010.9
20260507070659 12 277 3.2 4.8 0.00 0.18 0.18 93 1011.0
20260507065657 12 191 0.0 1.6 0.00 0.18 0.18 93 1011.1
20260507064657 12 218 1.6 1.6 0.00 0.18 0.18 93 1010.8
20260507063653 12 213 1.6 1.6 0.00 0.18 0.18 94 1011.1
20260507062652 12 227 0.0 0.0 0.00 0.18 0.18 96 1011.3
20260507061648 12 221 0.0 0.0 0.00 0.18 0.18 96 1011.5
20260507060643 12 238 0.0 0.0 0.00 0.18 0.18 97 1011.1
20260507055641 12 226 0.0 0.0 0.00 0.18 0.18 96 1011.0
20260507054639 12 250 0.0 0.0 0.00 0.18 0.18 96 1011.3
20260507053634 12 222 1.6 1.6 0.13 0.18 0.18 96 1011.3
20260507052630 12 29 0.0 1.6 0.00 0.15 0.15 95 1011.2
20260507051630 12 226 1.6 1.6 0.18 0.15 0.15 94 1011.2
20260507050629 12 266 3.2 4.8 0.00 0.13 0.13 95 1011.4
20260507045629 12 214 1.6 1.6 0.00 0.13 0.13 95 1010.9
20260507044628 12 154 1.6 1.6 0.00 0.13 0.13 95 1010.8
20260507043627 13 293 1.6 1.6 0.00 0.13 0.13 96 1011.4
20260507042626 13 294 1.6 3.2 0.00 0.13 0.13 95 1010.9
20260507041624 13 209 0.0 0.0 0.00 0.13 0.13 94 1011.5
20260507040624 14 121 0.0 0.0 2.11 0.13 0.13 92 1011.2
20260507035622 15 298 4.8 6.4 0.00 0.64 0.64 86 1011.0
20260507034621 15 226 3.2 3.2 0.00 0.64 0.64 88 1011.0
20260507033617 15 240 1.6 1.6 0.00 0.64 0.64 89 1010.6
20260507032617 15 4 1.6 3.2 0.00 0.64 0.64 91 1010.4
20260507031615 15 235 1.6 1.6 0.00 0.64 0.64 91 1010.4
20260507030615 16 179 1.6 3.2 0.00 0.64 0.64 89 1010.8
20260507025609 16 270 4.8 9.7 0.00 0.64 0.64 87 1010.4
20260507024604 16 281 3.2 3.2 0.00 0.64 0.64 87 1009.9
20260507023602 16 35 3.2 4.8 0.00 0.64 0.64 87 1009.7
20260507022557 16 228 0.0 0.0 0.00 0.64 0.64 88 1010.3
20260507021555 17 218 0.0 0.0 0.00 0.64 0.64 88 1009.8
20260507020549 17 209 3.2 3.2 0.00 0.64 0.64 88 1009.8
20260507015549 17 285 4.8 9.7 0.00 0.64 0.64 89 1009.7
20260507014549 17 222 0.0 1.6 0.00 0.64 0.64 93 1009.8
20260507013547 17 227 0.0 0.0 0.00 0.64 0.64 92 1009.7
20260507012542 17 230 0.0 0.0 0.00 0.64 0.64 91 1009.6
20260507011541 17 239 1.6 3.2 0.00 0.64 0.64 91 1010.0
20260507010537 17 276 1.6 3.2 0.00 0.64 0.64 92 1010.0
20260507005532 17 246 3.2 3.2 0.00 0.64 0.64 95 1009.8
20260507004531 18 258 0.0 0.0 0.00 0.64 0.64 96 1009.7
20260507003530 18 234 0.0 0.0 0.00 0.64 0.64 97 1009.4
20260507002528 18 223 0.0 1.6 0.00 0.64 0.64 98 1009.7
20260507001526 18 227 1.6 1.6 0.18 0.64 0.64 98 1009.4
20260507000526 18 229 0.0 0.0 0.18 0.64 0.64 98 1009.2
20260506235525 18 218 0.0 0.0 0.00 0.61 0.61 98 1009.0
20260506234524 18 234 0.0 0.0 0.00 0.61 0.61 97 1009.0
20260506233524 18 218 0.0 0.0 0.18 0.61 0.61 94 1009.0
20260506232523 19 224 1.6 1.6 0.30 0.58 0.58 91 1008.9
20260506231522 20 227 3.2 4.8 0.00 0.53 0.53 86 1008.5
20260506230521 20 219 1.6 1.6 0.00 0.53 0.53 83 1008.2
20260506225516 20 221 0.0 0.0 0.00 0.53 0.53 84 1008.3
20260506224515 20 199 1.6 1.6 0.00 0.53 0.53 83 1008.4
20260506223512 20 198 1.6 3.2 0.00 0.53 0.53 82 1008.3
20260506222511 20 193 1.6 3.2 0.00 0.53 0.53 83 1007.9
20260506221510 20 205 3.2 3.2 0.00 0.53 0.53 82 1008.2
20260506220508 21 195 3.2 9.7 0.00 0.53 0.53 80 1008.1
20260506215507 21 179 6.4 6.4 0.00 0.53 0.53 81 1008.0
20260506214506 21 203 6.4 11.3 0.00 0.53 0.53 80 1007.8
20260506213501 21 201 1.6 1.6 0.00 0.53 0.53 83 1008.0
20260506212459 21 190 4.8 6.4 0.00 0.53 0.53 81 1008.0
20260506211456 21 215 0.0 1.6 0.00 0.53 0.53 81 1008.0
20260506210456 21 105 4.8 9.7 0.00 0.53 0.53 82 1007.8
20260506205455 21 168 9.7 11.3 0.00 0.53 0.53 81 1007.7
20260506204455 21 224 1.6 3.2 0.00 0.53 0.53 82 1007.5
20260506203455 21 237 3.2 4.8 0.00 0.53 0.53 81 1007.5
20260506202450 20 152 6.4 6.4 0.00 0.53 0.53 81 1007.4
20260506201449 21 146 6.4 12.9 0.00 0.53 0.53 82 1007.9
20260506200448 21 131 1.6 3.2 0.00 0.53 0.53 83 1007.6
20260506195448 20 294 4.8 4.8 0.00 0.53 0.53 84 1007.8
20260506194448 20 168 4.8 4.8 0.00 0.53 0.53 84 1008.0
20260506193448 20 176 3.2 4.8 0.00 0.53 0.53 85 1007.7
20260506192447 20 226 1.6 1.6 0.00 0.53 0.53 83 1007.9
20260506191446 20 85 6.4 9.7 0.00 0.53 0.53 84 1007.9
20260506190445 20 144 9.7 14.5 0.00 0.53 0.53 83 1008.1
20260506185445 20 79 4.8 6.4 0.00 0.53 0.53 85 1008.3
20260506184445 20 220 3.2 3.2 0.00 0.53 0.53 86 1008.1
20260506183443 19 96 4.8 6.4 0.00 0.53 0.53 86 1008.3
20260506182444 19 163 6.4 9.7 0.00 0.53 0.53 86 1008.4
20260506181439 19 150 6.4 11.3 0.00 0.53 0.53 85 1008.5